[[{"header":{"parameterUnit":"m.s-1","parameterCategory":1,"la1":30.2991,"la2":30.254,"lo1":-89.0895,"lo2":-89.0444,"dy":0.0017,"dx":0.0017,"nx":28,"ny":28,"refTime":"2025-12-13T03:00:00:Z","depth":0,"parameterNumber":2,"parameterNumberName":"U-component_of_WINDS"},"data":[0,0,0,0,0,0,0,0,0,0,0,0,0,0,0,0,0,0,0,0,0,0,0,0,0,0,0,0,0,0,0,0,0,0,0,0,0,0,0,0,0,0,0,0,0,0,0,0,0,0,0,0,0,0,0,0,0,0,-0.8653,-0.8653,0,-0.8698,-0.8698,-0.8699,-0.8707,-0.8706,-0.8706,-0.8705,-0.8752,-0.8754,-0.8755,0,0,0,0,0,0,0,0,0,0,0,0,0,-0.8575,-0.8576,-0.8653,-0.8654,-0.8654,-0.8698,-0.8698,-0.8699,-0.8707,-0.8706,-0.8706,-0.8705,-0.8752,-0.8754,-0.8756,0,0,0,0,0,0,0,0,0,0,0,0,0,-0.8613,-0.8576,-0.8653,-0.8663,-0.8664,-0.8698,-0.8698,-0.8699,-0.8707,-0.8706,-0.8706,-0.8705,-0.8751,-0.8753,-0.8756,-0.8782,0,0,-0.8763,-0.8764,0,0,0,0,0,0,0,0,-0.8611,-0.8616,-0.8661,-0.8662,-0.8664,-0.8696,-0.8688,-0.8727,-0.8707,-0.8691,-0.8705,-0.8705,-0.8734,-0.8738,-0.8748,-0.8784,-0.8786,-0.8763,-0.8765,-0.8766,-0.8767,0,0,0,0,0,0,0,-0.8608,-0.8614,-0.8671,-0.8662,-0.8664,-0.8666,-0.8671,-0.8695,-0.8715,-0.8692,-0.8693,-0.8698,-0.8735,-0.8745,-0.8749,-0.8787,-0.8763,-0.8765,-0.8767,-0.8768,-0.8847,-0.8848,0,0,0,0,0,0,-0.8603,-0.8612,-0.8669,-0.8672,-0.8635,-0.8668,-0.8673,-0.8686,-0.8715,-0.8719,-0.8698,-0.8698,-0.8741,-0.8746,-0.875,-0.8782,-0.8766,-0.8768,-0.877,-0.8847,-0.8847,-0.8848,0,0,0,0,0,0,-0.8602,-0.8609,-0.8668,-0.8642,-0.865,-0.867,-0.8685,-0.8688,-0.8698,-0.872,-0.8723,-0.8705,-0.8741,-0.8747,-0.8774,-0.8784,-0.8769,-0.8771,-0.8846,-0.8847,-0.8848,-0.8847,0,0,0,0,0,0,-0.8599,-0.8608,-0.8618,-0.8642,-0.8651,-0.869,-0.8685,-0.8689,-0.8702,-0.8702,-0.8727,-0.8731,-0.8741,-0.877,-0.8776,-0.8787,-0.8773,-0.8845,-0.8846,-0.8847,-0.8846,-0.8848,-0.885,0,0,0,0,0,-0.8597,-0.8616,-0.8618,-0.8625,-0.8664,-0.8691,-0.8696,-0.8707,-0.8703,-0.8713,-0.8727,-0.873,-0.8782,-0.8773,-0.878,-0.8792,-0.8844,-0.8846,-0.8847,-0.8846,-0.8848,-0.8849,0,0,0,0,0,0,-0.8593,-0.862,-0.8622,-0.865,-0.8668,-0.8692,-0.8705,-0.8709,-0.8729,-0.8728,-0.8742,-0.8747,-0.8773,-0.8786,-0.8775,-0.8818,-0.8813,-0.8816,-0.8809,-0.8812,-0.8813,-0.8809,-0.8775,0,0,0,0,0,-0.8595,-0.8615,-0.8637,-0.866,-0.8669,-0.8685,-0.8698,-0.8705,-0.8724,-0.8731,-0.8747,-0.8766,-0.8787,-0.88,-0.882,-0.8849,-0.8854,-0.886,-0.8861,-0.8863,-0.8865,-0.888,-0.8883,-0.8853,-0.8853,-0.8853,0,0,-0.8601,-0.8618,-0.8629,-0.8659,-0.8674,-0.8694,-0.8692,-0.8713,-0.8727,-0.8735,-0.8761,-0.8773,-0.8795,-0.8823,-0.8836,-0.8833,-0.8874,-0.8865,-0.8865,-0.8867,-0.8882,-0.8885,-0.8887,-0.8854,-0.8854,-0.8854,0,0,-0.862,-0.8635,-0.8655,-0.867,-0.8692,-0.8703,-0.8708,-0.8731,-0.8739,-0.8766,-0.8772,-0.879,-0.8825,-0.884,-0.8852,-0.8877,-0.888,-0.8884,-0.8891,-0.8906,-0.8908,-0.8911,-0.8919,-0.8922,-0.8886,-0.8886,-0.8886,0,-0.8624,-0.8653,-0.8665,-0.8686,-0.8699,-0.8706,-0.8727,-0.874,-0.8768,-0.8777,-0.8774,-0.8818,-0.8834,-0.8864,-0.887,-0.8881,-0.8886,-0.888,-0.8907,-0.8909,-0.8912,-0.8919,-0.8923,-0.8886,-0.8886,-0.8886,-0.8886,0,-0.8657,-0.8677,-0.8691,-0.8717,-0.8731,-0.8752,-0.8767,-0.878,-0.8786,-0.8798,-0.8824,-0.8843,-0.8867,-0.8875,-0.8881,-0.8907,-0.8904,-0.8904,-0.8899,-0.8914,-0.8922,-0.8925,-0.8886,-0.8886,-0.8886,-0.8886,0,0,-0.8675,-0.8707,-0.8711,-0.8723,-0.8748,-0.8764,-0.8785,-0.8808,-0.8819,-0.8838,-0.8855,-0.8885,-0.8885,-0.8899,-0.8907,-0.892,-0.8938,-0.8918,-0.8919,-0.892,-0.8966,-0.8965,-0.8968,-0.894,-0.8941,-0.8941,-0.8964,0,-0.8696,-0.8733,-0.8744,-0.8775,-0.8794,-0.8801,-0.8819,-0.8836,-0.8848,-0.8865,-0.8878,-0.8898,-0.8897,-0.8906,-0.8919,-0.8933,-0.8947,-0.8931,-0.8956,-0.8957,-0.895,-0.8973,-0.8972,-0.8992,-0.8967,-0.8967,-0.8968,0,-0.8726,-0.8745,-0.8777,-0.8799,-0.8808,-0.8824,-0.8845,-0.8862,-0.8882,-0.889,-0.8905,-0.8912,-0.8934,-0.8928,-0.8958,-0.8947,-0.8958,-0.8967,-0.8968,-0.897,-0.8963,-0.8974,-0.8999,-0.9001,-0.8973,-0.8972,-0.8972,0,-0.8735,-0.8769,-0.8792,-0.8802,-0.8829,-0.8839,-0.8851,-0.887,-0.8883,-0.8902,-0.8911,-0.8933,-0.8944,-0.8961,-0.8974,-0.8968,-0.9002,-0.8998,-0.9009,-0.9008,-0.9015,-0.9014,-0.9041,-0.9024,-0.9024,-0.9023,-0.9023,0,-0.8757,-0.8777,-0.8796,-0.8811,-0.8833,-0.8845,-0.8867,-0.8879,-0.8896,-0.8913,-0.8921,-0.8937,-0.8953,-0.8971,-0.8981,-0.9004,-0.901,-0.9016,-0.9018,-0.9015,-0.9014,-0.9022,-0.902,-0.9024,-0.9024,-0.9024,-0.9024,0,-0.877,-0.8784,-0.881,-0.8833,-0.8839,-0.8854,-0.8874,-0.8888,-0.89,-0.8921,-0.8927,-0.8946,-0.8967,-0.8981,-0.9009,-0.9016,-0.9041,-0.9043,-0.9034,-0.9035,-0.9045,-0.9043,-0.9076,-0.9081,-0.9062,-0.9062,-0.9062,0,-0.8783,-0.8798,-0.8822,-0.8834,-0.8846,-0.8865,-0.8878,-0.8891,-0.8904,-0.8928,-0.8939,-0.8961,-0.898,-0.9014,-0.9029,-0.9051,-0.9053,-0.9063,-0.9056,-0.9052,-0.9052,-0.9051,-0.9052,-0.9064,-0.9064,-0.9064,-0.9064,0,-0.8804,-0.881,-0.8829,-0.8849,-0.8865,-0.8882,-0.8899,-0.8908,-0.8925,-0.8939,-0.8961,-0.8975,-0.9003,-0.9025,-0.9047,-0.906,-0.9065,-0.9067,-0.907,-0.9066,-0.906,-0.9063,-0.9036,-0.9066,-0.9065,-0.9065,-0.9065,-0.9065,-0.8817,-0.8831,-0.885,-0.887,-0.8884,-0.89,-0.8914,-0.8927,-0.8946,-0.8969,-0.8976,-0.8999,-0.9018,-0.9049,-0.9061,-0.9079,-0.9078,-0.9084,-0.9085,-0.9086,-0.9085,-0.9058,-0.9084,-0.9084,-0.9084,-0.9084,-0.9084,0,-0.8838,-0.8851,-0.8869,-0.8892,-0.8908,-0.8912,-0.8931,-0.8944,-0.8963,-0.8981,-0.8998,-0.9023,-0.9044,-0.9062,-0.9083,-0.9094,-0.9097,-0.9099,-0.9098,-0.9101,-0.9085,-0.908,-0.9097,-0.9097,-0.9097,-0.9097,-0.9097,-0.9097,-0.8851,-0.8873,-0.8881,-0.8911,-0.8924,-0.8946,-0.8956,-0.8971,-0.8985,-0.9012,-0.9029,-0.904,-0.9058,-0.9081,-0.91,-0.9105,-0.9112,-0.9114,-0.9119,-0.9104,-0.9102,-0.9101,-0.9095,-0.9115,-0.9115,-0.9133,-0.9133,-0.9133]},{"header":{"parameterUnit":"m.s-1","parameterCategory":1,"la1":30.2991,"la2":30.254,"lo1":-89.0895,"lo2":-89.0444,"dy":0.0017,"dx":0.0017,"nx":28,"ny":28,"refTime":"2025-12-13T03:00:00:Z","depth":0,"parameterNumber":3,"parameterNumberName":"V-component_of_WINDS"},"data":[0,0,0,0,0,0,0,0,0,0,0,0,0,0,0,0,0,0,0,0,0,0,0,0,0,0,0,0,0,0,0,0,0,0,0,0,0,0,0,0,0,0,0,0,0,0,0,0,0,0,0,0,0,0,0,0,0,0,1.2971,1.2972,0,1.3078,1.3079,1.308,1.3126,1.3126,1.3126,1.3125,1.3236,1.3239,1.3242,0,0,0,0,0,0,0,0,0,0,0,0,0,1.281,1.2813,1.2971,1.2973,1.2974,1.3078,1.3079,1.3081,1.3126,1.3126,1.3126,1.3125,1.3235,1.3239,1.3242,0,0,0,0,0,0,0,0,0,0,0,0,0,1.2895,1.2813,1.2971,1.3009,1.3013,1.3077,1.3079,1.3081,1.3126,1.3126,1.3125,1.3125,1.3234,1.3238,1.3243,1.3277,0,0,1.3257,1.3259,0,0,0,0,0,0,0,0,1.289,1.29,1.3002,1.3006,1.3012,1.3088,1.3063,1.3147,1.3126,1.3083,1.3125,1.3125,1.3187,1.3196,1.3216,1.3282,1.3287,1.3257,1.326,1.3262,1.3264,0,0,0,0,0,0,0,1.2884,1.2896,1.3013,1.3004,1.3009,1.3022,1.3033,1.3079,1.3136,1.3087,1.3091,1.3103,1.319,1.3212,1.3219,1.3289,1.3257,1.3262,1.3264,1.3266,1.3392,1.3392,0,0,0,0,0,0,1.2871,1.2891,1.301,1.3017,1.2949,1.3025,1.3038,1.3064,1.3135,1.3146,1.3103,1.3104,1.3204,1.3214,1.3223,1.327,1.3262,1.3267,1.3269,1.3391,1.3392,1.3392,0,0,0,0,0,0,1.2868,1.2882,1.3006,1.2955,1.2972,1.3028,1.3057,1.3066,1.3088,1.3147,1.3157,1.3114,1.3204,1.3217,1.3264,1.3275,1.3269,1.3273,1.3391,1.3391,1.3392,1.3363,0,0,0,0,0,0,1.2863,1.288,1.2893,1.2955,1.2974,1.3044,1.3057,1.3069,1.3096,1.3099,1.3161,1.3171,1.3205,1.3257,1.3269,1.3281,1.3277,1.339,1.3391,1.3392,1.3363,1.3363,1.3362,0,0,0,0,0,1.2857,1.288,1.2893,1.2907,1.2991,1.3044,1.3055,1.3093,1.3097,1.3111,1.3149,1.3169,1.3271,1.3261,1.3275,1.3289,1.3389,1.3391,1.3392,1.3363,1.3363,1.3362,0,0,0,0,0,0,1.2817,1.2889,1.2904,1.2948,1.299,1.3052,1.307,1.3091,1.3133,1.3134,1.3181,1.3194,1.3238,1.3268,1.3256,1.3327,1.3332,1.3336,1.3306,1.3306,1.3305,1.3297,1.3281,0,0,0,0,0,1.2814,1.285,1.2911,1.2943,1.2964,1.3013,1.3038,1.3064,1.3109,1.3127,1.3169,1.3213,1.3255,1.3282,1.3324,1.3368,1.3383,1.3384,1.3384,1.3383,1.3386,1.3414,1.3416,1.3396,1.3396,1.3396,0,0,1.2807,1.285,1.287,1.2937,1.2972,1.301,1.3028,1.3067,1.3096,1.3133,1.3181,1.3213,1.3266,1.3312,1.3334,1.3338,1.3395,1.3385,1.3384,1.3387,1.3415,1.3417,1.3419,1.3397,1.3397,1.3397,0,0,1.2813,1.2849,1.2881,1.2917,1.297,1.3004,1.3011,1.3071,1.3094,1.3143,1.3173,1.3208,1.328,1.3316,1.3344,1.3368,1.3388,1.338,1.3377,1.3404,1.3405,1.3407,1.3417,1.342,1.3383,1.3383,1.3383,0,1.2797,1.2855,1.2895,1.2933,1.2962,1.2998,1.3032,1.3065,1.313,1.315,1.3153,1.3246,1.3283,1.334,1.3346,1.3366,1.3378,1.3373,1.3402,1.3404,1.3406,1.3416,1.3419,1.3381,1.3382,1.3382,1.3382,0,1.2834,1.2874,1.2893,1.2955,1.2987,1.3022,1.3069,1.3097,1.3121,1.3154,1.3204,1.3251,1.3304,1.332,1.3343,1.338,1.3381,1.3393,1.3399,1.3406,1.3416,1.342,1.338,1.338,1.338,1.3381,0,0,1.2817,1.2903,1.2909,1.2939,1.3002,1.3034,1.3072,1.3125,1.3148,1.3192,1.3226,1.3287,1.3299,1.3331,1.3359,1.3382,1.34,1.3391,1.3393,1.3392,1.3446,1.3438,1.3441,1.3414,1.3415,1.3415,1.3442,0,1.2833,1.2902,1.2941,1.2995,1.3033,1.3069,1.3103,1.3146,1.3179,1.3217,1.3254,1.3297,1.3308,1.3328,1.3352,1.3392,1.3411,1.3391,1.3448,1.3449,1.3434,1.3447,1.3437,1.346,1.3446,1.3447,1.3448,0,1.286,1.2905,1.2962,1.3023,1.3041,1.307,1.3123,1.3158,1.3209,1.3231,1.3268,1.3296,1.334,1.3342,1.3404,1.3389,1.3415,1.3438,1.344,1.3448,1.3449,1.3455,1.3469,1.3472,1.3454,1.3453,1.3453,0,1.2844,1.2918,1.2963,1.2987,1.3059,1.3079,1.311,1.316,1.319,1.3236,1.3256,1.3307,1.3334,1.3373,1.3415,1.3413,1.3474,1.3479,1.3495,1.3494,1.3506,1.3505,1.3525,1.3521,1.3521,1.3521,1.3521,0,1.2858,1.2893,1.2957,1.2984,1.3025,1.3069,1.3108,1.3142,1.3187,1.3223,1.3258,1.3291,1.3344,1.3384,1.3417,1.3465,1.3476,1.3497,1.3506,1.3494,1.3492,1.3512,1.3512,1.3522,1.3522,1.3522,1.3521,0,1.2847,1.2891,1.2942,1.3007,1.3024,1.3051,1.3107,1.3136,1.3171,1.3216,1.323,1.3285,1.3335,1.338,1.3446,1.3469,1.3517,1.3527,1.35,1.3505,1.3518,1.3517,1.3553,1.356,1.355,1.355,1.355,0,1.2853,1.2881,1.2948,1.2975,1.3005,1.3047,1.3078,1.3124,1.3155,1.3216,1.3238,1.3291,1.3335,1.3412,1.3459,1.3511,1.3523,1.3532,1.3531,1.352,1.3525,1.3523,1.3527,1.3532,1.3532,1.3531,1.3531,0,1.286,1.2881,1.2924,1.2976,1.3012,1.3054,1.3098,1.3118,1.3172,1.3206,1.3257,1.3291,1.3359,1.3411,1.3468,1.3502,1.3526,1.3531,1.3538,1.3527,1.3511,1.3522,1.3499,1.353,1.3531,1.3531,1.3531,1.3531,1.2859,1.2886,1.2938,1.2986,1.3024,1.3064,1.3096,1.3135,1.3179,1.3237,1.3262,1.3315,1.3367,1.3446,1.348,1.3523,1.3528,1.3537,1.3539,1.3541,1.354,1.3503,1.3533,1.3533,1.3533,1.3533,1.3533,0,1.2869,1.2905,1.2948,1.3009,1.3047,1.3067,1.3117,1.3147,1.3193,1.324,1.3283,1.3343,1.3394,1.3446,1.3501,1.3525,1.3538,1.3538,1.3537,1.3545,1.3531,1.3521,1.3527,1.3527,1.3527,1.3527,1.3527,1.3527,1.2879,1.2926,1.2954,1.3021,1.3057,1.3109,1.3136,1.3175,1.3213,1.3278,1.3321,1.3354,1.3404,1.3463,1.3511,1.3526,1.3545,1.3542,1.3559,1.3545,1.3545,1.3545,1.3536,1.3545,1.3545,1.3569,1.357,1.357]}]]